Tracking 27126 objects as of 30-Mar-2023
HD Live streaming from Space Station
objects crossing your sky now

OSCAR 22 (UoSAT 5)

Track OSCAR 22 (UoSAT 5) now!
10-day predictions
OSCAR 22 (UoSAT 5) is classified as:


NORAD ID: 21575
Int'l Code: 1991-050B
Perigee: 755.6 km
Apogee: 767.6 km
Inclination: 98.5 °
Period: 99.9 minutes
Semi major axis: 7132 km
RCS: 0.42 m2 (medium)
Launch date: July 17, 1991
Source: United Kingdom (UK)
Launch site: FRENCH GUIANA (FRGUI)

Uplink (MHz): 145.900/145.975
Downlink (MHz): 435.120
Beacon (MHz):
Mode: 9600bps FSK
Call sign: UOSAT5-11 12
Status: Inactive


Earth imaging system; store-and-forward communications system; semi-operational in 2004.
Your satellite tracking list
Your tracking list is empty




NASA's NSSDC Master Catalog

Two Line Element Set (TLE):
1 21575U 91050B   23089.15083306  .00000549  00000-0  18350-3 0  9991
2 21575  98.4899 157.5833 0008412 109.4228 250.7870 14.41220353665429
Source of the keplerian elements: AFSPC